Time,TemperatureF,DewpointF,PressureIn,WindDirection,WindDirectionDegrees,WindSpeedMPH,WindSpeedGustMPH,Humidity,HourlyPrecipIn,Conditions,Clouds,dailyrainin,SoftwareType,DateUTC
2013-05-01 00:01:00,46.9,35.8,28.60,South,180,2.0,2.0,65,0.00,,,0.00,meteohub,2013-05-01 04:01:00,
2013-05-01 00:02:00,46.9,35.8,28.59,South,180,2.0,2.0,65,0.00,,,0.00,meteohub,2013-05-01 04:02:00,
2013-05-01 00:05:00,46.8,36.0,28.59,SSE,158,2.0,2.0,66,0.00,,,0.00,meteohub,2013-05-01 04:05:00,
2013-05-01 00:10:00,46.4,36.0,28.60,NE,45,2.0,2.0,67,0.00,,,0.00,meteohub,2013-05-01 04:10:00,
2013-05-01 00:15:00,46.0,36.1,28.60,NE,45,0.0,2.0,68,0.00,,,0.00,meteohub,2013-05-01 04:15:00,
2013-05-01 00:20:00,45.9,36.0,28.60,NE,45,0.0,2.0,68,0.00,,,0.00,meteohub,2013-05-01 04:20:00,
2013-05-01 00:25:00,45.5,36.0,28.60,SW,225,2.0,2.0,69,0.00,,,0.00,meteohub,2013-05-01 04:25:00,
2013-05-01 00:30:00,45.0,35.8,28.61,North,0,2.0,2.0,70,0.00,,,0.00,meteohub,2013-05-01 04:30:00,
2013-05-01 00:35:00,44.8,35.6,28.60,SE,135,2.0,2.0,70,0.00,,,0.00,meteohub,2013-05-01 04:35:00,
2013-05-01 00:41:00,44.6,36.1,28.61,SE,135,2.0,2.0,72,0.00,,,0.00,meteohub,2013-05-01 04:41:00,
2013-05-01 00:46:00,44.2,36.5,28.61,South,180,2.0,2.0,74,0.00,,,0.00,meteohub,2013-05-01 04:46:00,
2013-05-01 00:51:00,44.1,36.0,28.61,South,180,0.0,2.0,73,0.00,,,0.00,meteohub,2013-05-01 04:51:00,
2013-05-01 00:56:00,43.7,35.2,28.61,NE,45,2.0,2.0,72,0.00,,,0.00,meteohub,2013-05-01 04:56:00,
2013-05-01 01:02:00,43.3,34.9,28.61,NE,45,2.0,2.0,72,0.00,,,0.00,meteohub,2013-05-01 05:02:00,
2013-05-01 01:07:00,43.2,35.1,28.61,NE,45,0.0,2.0,73,0.00,,,0.00,meteohub,2013-05-01 05:07:00,
2013-05-01 01:12:00,42.8,35.1,28.61,South,180,2.0,2.0,74,0.00,,,0.00,meteohub,2013-05-01 05:12:00,
2013-05-01 01:17:00,42.8,35.4,28.61,SE,135,2.0,2.0,75,0.00,,,0.00,meteohub,2013-05-01 05:17:00,
2013-05-01 01:22:00,42.6,36.0,28.61,SW,225,2.0,3.0,77,0.00,,,0.00,meteohub,2013-05-01 05:22:00,
2013-05-01 01:27:00,42.3,35.6,28.61,SE,135,2.0,3.0,77,0.00,,,0.00,meteohub,2013-05-01 05:27:00,
2013-05-01 01:32:00,41.9,35.6,28.61,SE,135,3.0,3.0,78,0.00,,,0.00,meteohub,2013-05-01 05:32:00,
2013-05-01 01:37:00,41.5,35.8,28.61,South,180,4.0,4.0,80,0.00,,,0.00,meteohub,2013-05-01 05:37:00,
2013-05-01 01:42:00,41.4,35.6,28.62,South,180,4.0,5.0,80,0.00,,,0.00,meteohub,2013-05-01 05:42:00,
2013-05-01 01:48:00,41.4,35.6,28.62,West,270,2.0,5.0,80,0.00,,,0.00,meteohub,2013-05-01 05:48:00,
2013-05-01 01:53:00,41.2,35.4,28.62,West,270,0.0,5.0,80,0.00,,,0.00,meteohub,2013-05-01 05:53:00,
2013-05-01 01:58:00,40.8,35.1,28.63,West,270,0.0,4.0,80,0.00,,,0.00,meteohub,2013-05-01 05:58:00,
2013-05-01 02:03:00,40.8,35.4,28.62,SE,135,2.0,4.0,81,0.00,,,0.00,meteohub,2013-05-01 06:03:00,
2013-05-01 02:08:00,40.6,35.2,28.63,South,180,2.0,2.0,81,0.00,,,0.00,meteohub,2013-05-01 06:08:00,
2013-05-01 02:13:00,40.6,35.6,28.62,South,180,3.0,3.0,82,0.00,,,0.00,meteohub,2013-05-01 06:13:00,
2013-05-01 02:18:00,40.5,35.4,28.62,SSE,158,4.0,4.0,82,0.00,,,0.00,meteohub,2013-05-01 06:18:00,
2013-05-01 02:23:00,40.5,35.4,28.63,SE,135,2.0,4.0,82,0.00,,,0.00,meteohub,2013-05-01 06:23:00,
2013-05-01 02:28:00,40.3,35.2,28.63,SE,135,3.0,4.0,82,0.00,,,0.00,meteohub,2013-05-01 06:28:00,
2013-05-01 02:33:00,40.1,35.4,28.63,SW,225,4.0,4.0,83,0.00,,,0.00,meteohub,2013-05-01 06:33:00,
2013-05-01 02:38:00,39.7,34.7,28.63,SW,225,1.0,4.0,82,0.00,,,0.00,meteohub,2013-05-01 06:38:00,
2013-05-01 02:43:00,39.6,34.5,28.63,North,0,2.0,4.0,82,0.00,,,0.00,meteohub,2013-05-01 06:43:00,
2013-05-01 02:48:00,39.4,34.3,28.63,ESE,113,2.0,4.0,82,0.00,,,0.00,meteohub,2013-05-01 06:48:00,
2013-05-01 02:53:00,39.4,34.7,28.64,East,90,0.0,2.0,83,0.00,,,0.00,meteohub,2013-05-01 06:53:00,
2013-05-01 02:59:00,39.2,34.5,28.64,SW,225,2.0,2.0,83,0.00,,,0.00,meteohub,2013-05-01 06:59:00,
2013-05-01 03:04:00,39.0,34.5,28.64,North,0,2.0,2.0,84,0.00,,,0.00,meteohub,2013-05-01 07:04:00,
2013-05-01 03:09:00,38.8,34.3,28.65,North,0,2.0,2.0,84,0.00,,,0.00,meteohub,2013-05-01 07:09:00,
2013-05-01 03:14:00,38.7,34.2,28.65,NW,315,0.0,2.0,84,0.00,,,0.00,meteohub,2013-05-01 07:14:00,
2013-05-01 03:19:00,38.7,34.2,28.65,SW,225,2.0,2.0,84,0.00,,,0.00,meteohub,2013-05-01 07:19:00,
2013-05-01 03:24:00,38.5,34.3,28.64,SW,225,2.0,2.0,85,0.00,,,0.00,meteohub,2013-05-01 07:24:00,
2013-05-01 03:29:00,38.5,34.3,28.65,SW,225,0.0,2.0,85,0.00,,,0.00,meteohub,2013-05-01 07:29:00,
2013-05-01 03:34:00,38.3,34.5,28.65,SE,135,2.0,2.0,86,0.00,,,0.00,meteohub,2013-05-01 07:34:00,
2013-05-01 03:39:00,38.3,34.5,28.65,South,180,1.0,2.0,86,0.00,,,0.00,meteohub,2013-05-01 07:39:00,
2013-05-01 03:44:00,38.1,34.3,28.65,SW,225,2.0,2.0,86,0.00,,,0.00,meteohub,2013-05-01 07:44:00,
2013-05-01 03:49:00,37.9,34.2,28.65,South,180,2.0,2.0,86,0.00,,,0.00,meteohub,2013-05-01 07:49:00,
2013-05-01 03:54:00,37.8,34.2,28.65,SE,135,1.0,2.0,87,0.00,,,0.00,meteohub,2013-05-01 07:54:00,
2013-05-01 03:59:00,37.6,34.0,28.65,SE,135,0.0,2.0,87,0.00,,,0.00,meteohub,2013-05-01 07:59:00,
2013-05-01 04:04:00,37.4,33.8,28.66,NE,45,0.0,2.0,87,0.00,,,0.00,meteohub,2013-05-01 08:04:00,
2013-05-01 04:09:00,37.0,32.4,28.66,South,180,2.0,2.0,83,0.00,,,0.00,meteohub,2013-05-01 08:09:00,
2013-05-01 04:15:00,36.7,32.0,28.66,South,180,2.0,2.0,83,0.00,,,0.00,meteohub,2013-05-01 08:15:00,
2013-05-01 04:20:00,36.7,32.0,28.66,South,180,2.0,2.0,83,0.00,,,0.00,meteohub,2013-05-01 08:20:00,
2013-05-01 04:25:00,36.5,32.2,28.66,SE,135,0.0,2.0,84,0.00,,,0.00,meteohub,2013-05-01 08:25:00,
2013-05-01 04:30:00,36.5,32.2,28.66,SE,135,1.0,2.0,84,0.00,,,0.00,meteohub,2013-05-01 08:30:00,
2013-05-01 04:35:00,36.3,32.2,28.66,SE,135,2.0,2.0,85,0.00,,,0.00,meteohub,2013-05-01 08:35:00,
2013-05-01 04:40:00,36.1,32.0,28.66,South,180,3.0,3.0,85,0.00,,,0.00,meteohub,2013-05-01 08:40:00,
2013-05-01 04:45:00,36.1,32.4,28.66,SE,135,2.0,3.0,86,0.00,,,0.00,meteohub,2013-05-01 08:45:00,
2013-05-01 04:50:00,36.0,32.5,28.66,SE,135,2.0,3.0,87,0.00,,,0.00,meteohub,2013-05-01 08:50:00,
2013-05-01 04:55:00,35.8,32.4,28.66,North,0,4.0,4.0,87,0.00,,,0.00,meteohub,2013-05-01 08:55:00,
2013-05-01 05:00:00,36.0,32.7,28.66,SE,135,3.0,5.0,88,0.00,,,0.00,meteohub,2013-05-01 09:00:00,
2013-05-01 05:05:00,36.0,32.7,28.66,SE,135,4.0,6.0,88,0.00,,,0.00,meteohub,2013-05-01 09:05:00,
2013-05-01 05:10:00,35.8,32.5,28.66,SE,135,2.0,6.0,88,0.00,,,0.00,meteohub,2013-05-01 09:10:00,
2013-05-01 05:15:00,35.8,32.5,28.66,SE,135,1.0,4.0,88,0.00,,,0.00,meteohub,2013-05-01 09:15:00,
2013-05-01 05:20:00,35.6,32.4,28.66,South,180,1.0,4.0,88,0.00,,,0.00,meteohub,2013-05-01 09:20:00,
2013-05-01 05:25:00,35.4,32.5,28.66,SE,135,2.0,2.0,89,0.00,,,0.00,meteohub,2013-05-01 09:25:00,
2013-05-01 05:31:00,35.2,32.4,28.66,SE,135,2.0,4.0,89,0.00,,,0.00,meteohub,2013-05-01 09:31:00,
2013-05-01 05:36:00,35.1,32.2,28.67,SE,135,1.0,4.0,89,0.00,,,0.00,meteohub,2013-05-01 09:36:00,
2013-05-01 05:41:00,35.1,32.2,28.66,SE,135,2.0,4.0,89,0.00,,,0.00,meteohub,2013-05-01 09:41:00,
2013-05-01 05:46:00,34.9,32.0,28.66,South,180,2.0,4.0,89,0.00,,,0.00,meteohub,2013-05-01 09:46:00,
2013-05-01 05:51:00,34.7,31.8,28.66,East,90,2.0,2.0,89,0.00,,,0.00,meteohub,2013-05-01 09:51:00,
2013-05-01 05:56:00,34.7,31.8,28.66,SE,135,2.0,2.0,89,0.00,,,0.00,meteohub,2013-05-01 09:56:00,
2013-05-01 06:01:00,34.7,31.8,28.67,SE,135,2.0,2.0,89,0.00,,,0.00,meteohub,2013-05-01 10:01:00,
2013-05-01 06:06:00,34.7,32.0,28.67,SE,135,2.0,3.0,90,0.00,,,0.00,meteohub,2013-05-01 10:06:00,
2013-05-01 06:11:00,34.5,31.8,28.66,NW,315,2.0,3.0,90,0.00,,,0.00,meteohub,2013-05-01 10:11:00,
2013-05-01 06:16:00,34.5,31.8,28.67,NE,45,1.0,3.0,90,0.00,,,0.00,meteohub,2013-05-01 10:16:00,
2013-05-01 06:21:00,34.5,31.8,28.68,SE,135,2.0,2.0,90,0.00,,,0.00,meteohub,2013-05-01 10:21:00,
2013-05-01 06:26:00,34.5,31.8,28.68,SE,135,1.0,2.0,90,0.00,,,0.00,meteohub,2013-05-01 10:26:00,
2013-05-01 06:31:00,34.5,31.8,28.68,SE,135,0.0,2.0,90,0.00,,,0.00,meteohub,2013-05-01 10:31:00,
2013-05-01 06:36:00,34.5,31.8,28.69,East,90,1.0,2.0,90,0.00,,,0.00,meteohub,2013-05-01 10:36:00,
2013-05-01 06:41:00,35.4,32.7,28.69,NE,45,1.0,2.0,90,0.00,,,0.00,meteohub,2013-05-01 10:41:00,
2013-05-01 06:47:00,36.1,33.4,28.69,NNE,23,2.0,2.0,90,0.00,,,0.00,meteohub,2013-05-01 10:47:00,
2013-05-01 06:52:00,36.9,34.2,28.69,NE,45,2.0,2.0,90,0.00,,,0.00,meteohub,2013-05-01 10:52:00,
2013-05-01 06:57:00,37.4,35.8,28.69,SE,135,2.0,3.0,94,0.00,,,0.00,meteohub,2013-05-01 10:57:00,
2013-05-01 07:02:00,38.1,36.3,28.69,East,90,2.0,3.0,93,0.00,,,0.00,meteohub,2013-05-01 11:02:00,
2013-05-01 07:07:00,38.7,36.5,28.70,East,90,2.0,3.0,92,0.00,,,0.00,meteohub,2013-05-01 11:07:00,
2013-05-01 07:12:00,39.4,36.1,28.70,NE,45,2.0,2.0,88,0.00,,,0.00,meteohub,2013-05-01 11:12:00,
2013-05-01 07:17:00,39.9,36.1,28.70,NE,45,2.0,2.0,86,0.00,,,0.00,meteohub,2013-05-01 11:17:00,
2013-05-01 07:22:00,40.5,36.3,28.70,East,90,2.0,3.0,85,0.00,,,0.00,meteohub,2013-05-01 11:22:00,
2013-05-01 07:27:00,41.0,36.0,28.71,East,90,2.0,3.0,82,0.00,,,0.00,meteohub,2013-05-01 11:27:00,
2013-05-01 07:32:00,41.4,36.0,28.70,East,90,2.0,3.0,81,0.00,,,0.00,meteohub,2013-05-01 11:32:00,
2013-05-01 07:37:00,42.1,36.3,28.71,ENE,68,2.0,2.0,80,0.00,,,0.00,meteohub,2013-05-01 11:37:00,
2013-05-01 07:42:00,43.0,36.9,28.71,ENE,68,2.0,2.0,79,0.00,,,0.00,meteohub,2013-05-01 11:42:00,
2013-05-01 07:47:00,43.5,36.9,28.71,NE,45,2.0,3.0,77,0.00,,,0.00,meteohub,2013-05-01 11:47:00,
2013-05-01 07:52:00,44.1,37.0,28.71,NE,45,2.0,3.0,76,0.00,,,0.00,meteohub,2013-05-01 11:52:00,
2013-05-01 07:57:00,45.0,37.2,28.71,ESE,113,2.0,3.0,74,0.00,,,0.00,meteohub,2013-05-01 11:57:00,
2013-05-01 08:02:00,45.7,36.9,28.71,North,0,1.0,2.0,71,0.00,,,0.00,meteohub,2013-05-01 12:02:00,
2013-05-01 08:07:00,47.1,38.5,28.71,NE,45,2.0,2.0,72,0.00,,,0.00,meteohub,2013-05-01 12:07:00,
2013-05-01 08:12:00,47.7,37.9,28.72,North,0,2.0,3.0,69,0.00,,,0.00,meteohub,2013-05-01 12:12:00,
2013-05-01 08:17:00,48.4,37.2,28.71,East,90,2.0,3.0,65,0.00,,,0.00,meteohub,2013-05-01 12:17:00,
2013-05-01 08:22:00,48.9,37.2,28.71,East,90,2.0,3.0,64,0.00,,,0.00,meteohub,2013-05-01 12:22:00,
2013-05-01 08:27:00,49.6,37.9,28.71,East,90,2.0,3.0,64,0.00,,,0.00,meteohub,2013-05-01 12:27:00,
2013-05-01 08:32:00,50.5,37.9,28.71,East,90,2.0,3.0,62,0.00,,,0.00,meteohub,2013-05-01 12:32:00,
2013-05-01 08:37:00,51.4,38.5,28.71,East,90,2.0,3.0,61,0.00,,,0.00,meteohub,2013-05-01 12:37:00,
2013-05-01 08:42:00,52.2,38.3,28.71,NE,45,3.0,3.0,59,0.00,,,0.00,meteohub,2013-05-01 12:42:00,
2013-05-01 08:47:00,52.5,38.1,28.71,East,90,3.0,3.0,58,0.00,,,0.00,meteohub,2013-05-01 12:47:00,
2013-05-01 08:52:00,53.2,37.9,28.71,NE,45,2.0,3.0,56,0.00,,,0.00,meteohub,2013-05-01 12:52:00,
2013-05-01 08:57:00,54.5,37.8,28.71,East,90,1.0,3.0,53,0.00,,,0.00,meteohub,2013-05-01 12:57:00,
2013-05-01 09:02:00,55.8,37.9,28.71,East,90,2.0,3.0,51,0.00,,,0.00,meteohub,2013-05-01 13:02:00,
2013-05-01 09:07:00,57.0,37.6,28.71,East,90,2.0,3.0,48,0.00,,,0.00,meteohub,2013-05-01 13:07:00,
2013-05-01 09:12:00,58.1,36.9,28.71,East,90,2.0,3.0,45,0.00,,,0.00,meteohub,2013-05-01 13:12:00,
2013-05-01 09:17:00,58.6,36.9,28.71,East,90,2.0,3.0,44,0.00,,,0.00,meteohub,2013-05-01 13:17:00,
2013-05-01 09:22:00,59.5,35.2,28.71,North,0,2.0,3.0,40,0.00,,,0.00,meteohub,2013-05-01 13:22:00,
2013-05-01 09:27:00,59.9,30.7,28.70,East,90,3.0,3.0,33,0.00,,,0.00,meteohub,2013-05-01 13:27:00,
2013-05-01 09:32:00,60.4,31.3,28.70,East,90,4.0,4.0,33,0.00,,,0.00,meteohub,2013-05-01 13:32:00,
2013-05-01 09:37:00,60.8,29.1,28.70,SE,135,2.0,4.0,30,0.00,,,0.00,meteohub,2013-05-01 13:37:00,
2013-05-01 09:42:00,62.1,29.5,28.70,South,180,5.0,7.0,29,0.00,,,0.00,meteohub,2013-05-01 13:42:00,
2013-05-01 09:47:00,63.0,29.3,28.70,East,90,4.0,7.0,28,0.00,,,0.00,meteohub,2013-05-01 13:47:00,
2013-05-01 09:52:00,63.7,28.2,28.70,SE,135,3.0,8.0,26,0.00,,,0.00,meteohub,2013-05-01 13:52:00,
2013-05-01 09:57:00,64.4,29.7,28.70,South,180,8.0,8.0,27,0.00,,,0.00,meteohub,2013-05-01 13:57:00,
2013-05-01 10:02:00,64.4,29.7,28.70,SE,135,6.0,8.0,27,0.00,,,0.00,meteohub,2013-05-01 14:02:00,
2013-05-01 10:07:00,64.9,32.0,28.70,South,180,9.0,9.0,29,0.00,,,0.00,meteohub,2013-05-01 14:07:00,
2013-05-01 10:12:00,65.8,30.9,28.70,South,180,8.0,11.0,27,0.00,,,0.00,meteohub,2013-05-01 14:12:00,
2013-05-01 10:17:00,65.7,29.8,28.70,SE,135,4.0,11.0,26,0.00,,,0.00,meteohub,2013-05-01 14:17:00,
2013-05-01 10:22:00,65.7,29.8,28.70,SE,135,4.0,12.0,26,0.00,,,0.00,meteohub,2013-05-01 14:22:00,
2013-05-01 10:27:00,66.2,28.4,28.70,South,180,2.0,12.0,24,0.00,,,0.00,meteohub,2013-05-01 14:27:00,
2013-05-01 10:32:00,66.9,28.9,28.70,East,90,3.0,12.0,24,0.00,,,0.00,meteohub,2013-05-01 14:32:00,
2013-05-01 10:37:00,66.9,26.8,28.70,South,180,4.0,8.0,22,0.00,,,0.00,meteohub,2013-05-01 14:37:00,
2013-05-01 10:42:00,66.9,26.8,28.70,SW,225,9.0,9.0,22,0.00,,,0.00,meteohub,2013-05-01 14:42:00,
2013-05-01 10:47:00,66.9,28.9,28.70,South,180,6.0,9.0,24,0.00,,,0.00,meteohub,2013-05-01 14:47:00,
2013-05-01 10:52:00,66.7,27.7,28.70,South,180,4.0,9.0,23,0.00,,,0.00,meteohub,2013-05-01 14:52:00,
2013-05-01 10:57:00,67.3,29.3,28.71,SE,135,7.0,9.0,24,0.00,,,0.00,meteohub,2013-05-01 14:57:00,
2013-05-01 11:02:00,66.6,27.7,28.70,West,270,6.0,9.0,23,0.00,,,0.00,meteohub,2013-05-01 15:02:00,
2013-05-01 11:07:00,66.7,28.8,28.70,South,180,8.0,8.0,24,0.00,,,0.00,meteohub,2013-05-01 15:07:00,
2013-05-01 11:12:00,66.7,28.8,28.70,SE,135,8.0,8.0,24,0.00,,,0.00,meteohub,2013-05-01 15:12:00,
2013-05-01 11:17:00,66.0,28.2,28.70,South,180,8.0,10.0,24,0.00,,,0.00,meteohub,2013-05-01 15:17:00,
2013-05-01 11:22:00,65.8,27.0,28.70,South,180,4.0,10.0,23,0.00,,,0.00,meteohub,2013-05-01 15:22:00,
2013-05-01 11:27:00,66.4,27.5,28.70,West,270,8.0,10.0,23,0.00,,,0.00,meteohub,2013-05-01 15:27:00,
2013-05-01 11:32:00,66.9,26.8,28.70,South,180,8.0,8.0,22,0.00,,,0.00,meteohub,2013-05-01 15:32:00,
2013-05-01 11:37:00,67.3,29.3,28.69,South,180,10.0,10.0,24,0.00,,,0.00,meteohub,2013-05-01 15:37:00,
2013-05-01 11:42:00,67.1,27.0,28.70,South,180,10.0,11.0,22,0.00,,,0.00,meteohub,2013-05-01 15:42:00,
2013-05-01 11:47:00,66.9,26.8,28.70,SSE,158,9.0,11.0,22,0.00,,,0.00,meteohub,2013-05-01 15:47:00,
2013-05-01 11:52:00,66.4,26.4,28.70,South,180,4.0,14.0,22,0.00,,,0.00,meteohub,2013-05-01 15:52:00,
2013-05-01 11:57:00,66.9,27.9,28.70,NW,315,4.0,14.0,23,0.00,,,0.00,meteohub,2013-05-01 15:57:00,
2013-05-01 12:02:00,67.3,28.2,28.69,SW,225,4.0,14.0,23,0.00,,,0.00,meteohub,2013-05-01 16:02:00,
2013-05-01 12:07:00,68.0,26.6,28.69,South,180,13.0,13.0,21,0.00,,,0.00,meteohub,2013-05-01 16:07:00,
2013-05-01 12:12:00,67.3,27.1,28.69,SSE,158,4.0,13.0,22,0.00,,,0.00,meteohub,2013-05-01 16:12:00,
2013-05-01 12:17:00,67.3,26.1,28.69,South,180,11.0,13.0,21,0.00,,,0.00,meteohub,2013-05-01 16:17:00,
2013-05-01 12:22:00,67.5,26.2,28.69,SSE,158,15.0,15.0,21,0.00,,,0.00,meteohub,2013-05-01 16:22:00,
2013-05-01 12:27:00,66.7,25.5,28.69,ESE,113,4.0,15.0,21,0.00,,,0.00,meteohub,2013-05-01 16:27:00,
2013-05-01 12:32:00,67.1,25.9,28.69,East,90,12.0,15.0,21,0.00,,,0.00,meteohub,2013-05-01 16:32:00,
2013-05-01 12:37:00,67.3,27.1,28.69,South,180,11.0,15.0,22,0.00,,,0.00,meteohub,2013-05-01 16:37:00,
2013-05-01 12:42:00,67.5,27.3,28.69,South,180,8.0,12.0,22,0.00,,,0.00,meteohub,2013-05-01 16:42:00,
2013-05-01 12:48:00,68.2,25.5,28.69,SE,135,8.0,12.0,20,0.00,,,0.00,meteohub,2013-05-01 16:48:00,
2013-05-01 12:53:00,68.0,25.3,28.69,South,180,8.0,11.0,20,0.00,,,0.00,meteohub,2013-05-01 16:53:00,
2013-05-01 12:58:00,68.4,27.0,28.68,SE,135,3.0,9.0,21,0.00,,,0.00,meteohub,2013-05-01 16:58:00,
2013-05-01 13:03:00,68.5,25.9,28.68,SE,135,4.0,9.0,20,0.00,,,0.00,meteohub,2013-05-01 17:03:00,
2013-05-01 13:08:00,68.4,25.7,28.69,SSE,158,9.0,10.0,20,0.00,,,0.00,meteohub,2013-05-01 17:08:00,
2013-05-01 13:13:00,68.4,27.0,28.68,SE,135,8.0,10.0,21,0.00,,,0.00,meteohub,2013-05-01 17:13:00,
2013-05-01 13:18:00,68.9,27.3,28.69,SE,135,4.0,10.0,21,0.00,,,0.00,meteohub,2013-05-01 17:18:00,
2013-05-01 13:23:00,68.7,26.1,28.69,SE,135,8.0,9.0,20,0.00,,,0.00,meteohub,2013-05-01 17:23:00,
2013-05-01 13:28:00,68.5,21.9,28.69,South,180,11.0,11.0,17,0.00,,,0.00,meteohub,2013-05-01 17:28:00,
2013-05-01 13:33:00,68.5,21.9,28.69,SE,135,4.0,12.0,17,0.00,,,0.00,meteohub,2013-05-01 17:33:00,
2013-05-01 13:38:00,68.9,19.4,28.69,NNE,23,8.0,12.0,15,0.00,,,0.00,meteohub,2013-05-01 17:38:00,
2013-05-01 13:43:00,69.1,21.0,28.69,East,90,3.0,12.0,16,0.00,,,0.00,meteohub,2013-05-01 17:43:00,
2013-05-01 13:48:00,69.3,19.6,28.69,SE,135,4.0,8.0,15,0.00,,,0.00,meteohub,2013-05-01 17:48:00,
2013-05-01 13:54:00,68.9,19.4,28.68,SE,135,9.0,9.0,15,0.00,,,0.00,meteohub,2013-05-01 17:54:00,
2013-05-01 13:59:00,68.5,15.8,28.68,East,90,4.0,11.0,13,0.00,,,0.00,meteohub,2013-05-01 17:59:00,
2013-05-01 14:04:00,68.5,17.4,28.68,SE,135,10.0,11.0,14,0.00,,,0.00,meteohub,2013-05-01 18:04:00,
2013-05-01 14:09:00,68.5,17.4,28.68,SE,135,10.0,11.0,14,0.00,,,0.00,meteohub,2013-05-01 18:09:00,
2013-05-01 14:14:00,69.3,19.6,28.68,ESE,113,6.0,10.0,15,0.00,,,0.00,meteohub,2013-05-01 18:14:00,
2013-05-01 14:19:00,69.8,16.7,28.67,SE,135,6.0,10.0,13,0.00,,,0.00,meteohub,2013-05-01 18:19:00,
2013-05-01 14:24:00,69.4,16.5,28.68,SE,135,5.0,10.0,13,0.00,,,0.00,meteohub,2013-05-01 18:24:00,
2013-05-01 14:29:00,69.4,16.5,28.68,SE,135,10.0,10.0,13,0.00,,,0.00,meteohub,2013-05-01 18:29:00,
2013-05-01 14:34:00,69.3,16.3,28.67,SE,135,6.0,10.0,13,0.00,,,0.00,meteohub,2013-05-01 18:34:00,
2013-05-01 14:39:00,69.6,14.7,28.67,SE,135,5.0,10.0,12,0.00,,,0.00,meteohub,2013-05-01 18:39:00,
2013-05-01 14:44:00,69.4,14.5,28.67,South,180,4.0,10.0,12,0.00,,,0.00,meteohub,2013-05-01 18:44:00,
2013-05-01 14:49:00,70.0,10.9,28.67,South,180,10.0,10.0,10,0.00,,,0.00,meteohub,2013-05-01 18:49:00,
2013-05-01 14:55:00,70.0,10.9,28.67,ENE,68,9.0,10.0,10,0.00,,,0.00,meteohub,2013-05-01 18:55:00,
2013-05-01 15:00:00,69.4,12.6,28.67,South,180,8.0,11.0,11,0.00,,,0.00,meteohub,2013-05-01 19:00:00,
2013-05-01 15:05:00,69.6,12.7,28.67,ENE,68,6.0,11.0,11,0.00,,,0.00,meteohub,2013-05-01 19:05:00,
2013-05-01 15:10:00,69.6,12.7,28.67,SW,225,7.0,11.0,11,0.00,,,0.00,meteohub,2013-05-01 19:10:00,
2013-05-01 15:15:00,70.3,15.3,28.67,SE,135,10.0,10.0,12,0.00,,,0.00,meteohub,2013-05-01 19:15:00,
2013-05-01 15:20:00,69.8,12.9,28.67,East,90,8.0,11.0,11,0.00,,,0.00,meteohub,2013-05-01 19:20:00,
2013-05-01 15:25:00,69.4,14.5,28.67,SE,135,6.0,11.0,12,0.00,,,0.00,meteohub,2013-05-01 19:25:00,
2013-05-01 15:30:00,69.8,14.9,28.67,SE,135,6.0,11.0,12,0.00,,,0.00,meteohub,2013-05-01 19:30:00,
2013-05-01 15:35:00,70.0,13.1,28.67,South,180,8.0,11.0,11,0.00,,,0.00,meteohub,2013-05-01 19:35:00,
2013-05-01 15:40:00,69.8,12.9,28.67,South,180,8.0,11.0,11,0.00,,,0.00,meteohub,2013-05-01 19:40:00,
2013-05-01 15:45:00,69.8,12.9,28.66,SE,135,6.0,11.0,11,0.00,,,0.00,meteohub,2013-05-01 19:45:00,
2013-05-01 15:50:00,70.5,15.4,28.67,SE,135,5.0,11.0,12,0.00,,,0.00,meteohub,2013-05-01 19:50:00,
2013-05-01 15:55:00,70.5,11.3,28.66,SE,135,8.0,10.0,10,0.00,,,0.00,meteohub,2013-05-01 19:55:00,
2013-05-01 16:00:00,70.5,13.5,28.66,SW,225,8.0,10.0,11,0.00,,,0.00,meteohub,2013-05-01 20:00:00,
2013-05-01 16:05:00,70.7,13.6,28.66,South,180,6.0,10.0,11,0.00,,,0.00,meteohub,2013-05-01 20:05:00,
2013-05-01 16:11:00,70.2,11.1,28.66,SE,135,2.0,10.0,10,0.00,,,0.00,meteohub,2013-05-01 20:11:00,
2013-05-01 16:16:00,70.3,13.3,28.67,SE,135,8.0,9.0,11,0.00,,,0.00,meteohub,2013-05-01 20:16:00,
2013-05-01 16:21:00,70.5,13.5,28.67,East,90,8.0,9.0,11,0.00,,,0.00,meteohub,2013-05-01 20:21:00,
2013-05-01 16:26:00,70.2,11.1,28.66,South,180,4.0,11.0,10,0.00,,,0.00,meteohub,2013-05-01 20:26:00,
2013-05-01 16:31:00,70.5,13.5,28.67,SE,135,9.0,11.0,11,0.00,,,0.00,meteohub,2013-05-01 20:31:00,
2013-05-01 16:36:00,70.5,11.3,28.66,South,180,8.0,11.0,10,0.00,,,0.00,meteohub,2013-05-01 20:36:00,
2013-05-01 16:41:00,70.7,11.5,28.66,NW,315,2.0,11.0,10,0.00,,,0.00,meteohub,2013-05-01 20:41:00,
2013-05-01 16:46:00,71.2,16.0,28.66,South,180,6.0,9.0,12,0.00,,,0.00,meteohub,2013-05-01 20:46:00,
2013-05-01 16:51:00,71.2,11.8,28.67,SSE,158,5.0,8.0,10,0.00,,,0.00,meteohub,2013-05-01 20:51:00,
2013-05-01 16:56:00,70.9,11.7,28.67,SW,225,8.0,8.0,10,0.00,,,0.00,meteohub,2013-05-01 20:56:00,
2013-05-01 17:01:00,70.9,13.8,28.67,SE,135,6.0,8.0,11,0.00,,,0.00,meteohub,2013-05-01 21:01:00,
2013-05-01 17:06:00,70.9,11.7,28.68,South,180,5.0,8.0,10,0.00,,,0.00,meteohub,2013-05-01 21:06:00,
2013-05-01 17:11:00,70.9,11.7,28.68,South,180,4.0,8.0,10,0.00,,,0.00,meteohub,2013-05-01 21:11:00,
2013-05-01 17:16:00,70.9,11.7,28.68,ENE,68,4.0,8.0,10,0.00,,,0.00,meteohub,2013-05-01 21:16:00,
2013-05-01 17:22:00,70.5,13.5,28.67,South,180,7.0,7.0,11,0.00,,,0.00,meteohub,2013-05-01 21:22:00,
2013-05-01 17:27:00,70.0,10.9,28.67,SW,225,6.0,8.0,10,0.00,,,0.00,meteohub,2013-05-01 21:27:00,
2013-05-01 17:32:00,69.8,10.8,28.67,SE,135,8.0,8.0,10,0.00,,,0.00,meteohub,2013-05-01 21:32:00,
2013-05-01 17:37:00,69.6,12.7,28.68,South,180,3.0,8.0,11,0.00,,,0.00,meteohub,2013-05-01 21:37:00,
2013-05-01 17:42:00,69.8,10.8,28.68,SW,225,4.0,8.0,10,0.00,,,0.00,meteohub,2013-05-01 21:42:00,
2013-05-01 17:47:00,69.6,12.7,28.68,South,180,4.0,8.0,11,0.00,,,0.00,meteohub,2013-05-01 21:47:00,
2013-05-01 17:52:00,69.4,12.6,28.68,NE,45,2.0,8.0,11,0.00,,,0.00,meteohub,2013-05-01 21:52:00,
2013-05-01 17:57:00,69.4,14.5,28.68,NW,315,2.0,8.0,12,0.00,,,0.00,meteohub,2013-05-01 21:57:00,
2013-05-01 18:02:00,69.4,14.5,28.68,SE,135,3.0,8.0,12,0.00,,,0.00,meteohub,2013-05-01 22:02:00,
2013-05-01 18:07:00,69.4,14.5,28.68,SSE,158,4.0,8.0,12,0.00,,,0.00,meteohub,2013-05-01 22:07:00,
2013-05-01 18:12:00,69.1,12.4,28.68,East,90,4.0,4.0,11,0.00,,,0.00,meteohub,2013-05-01 22:12:00,
2013-05-01 18:17:00,68.9,14.2,28.68,SW,225,2.0,6.0,12,0.00,,,0.00,meteohub,2013-05-01 22:17:00,
2013-05-01 18:22:00,68.7,15.8,28.68,SE,135,4.0,6.0,13,0.00,,,0.00,meteohub,2013-05-01 22:22:00,
2013-05-01 18:27:00,68.2,15.4,28.68,SE,135,2.0,6.0,13,0.00,,,0.00,meteohub,2013-05-01 22:27:00,
2013-05-01 18:32:00,67.8,16.9,28.68,South,180,2.0,4.0,14,0.00,,,0.00,meteohub,2013-05-01 22:32:00,
2013-05-01 18:37:00,67.8,16.9,28.68,South,180,2.0,4.0,14,0.00,,,0.00,meteohub,2013-05-01 22:37:00,
2013-05-01 18:42:00,67.5,16.5,28.69,SE,135,8.0,8.0,14,0.00,,,0.00,meteohub,2013-05-01 22:42:00,
2013-05-01 18:47:00,67.1,16.3,28.69,South,180,2.0,8.0,14,0.00,,,0.00,meteohub,2013-05-01 22:47:00,
2013-05-01 18:52:00,66.7,17.6,28.68,SW,225,1.0,8.0,15,0.00,,,0.00,meteohub,2013-05-01 22:52:00,
2013-05-01 18:57:00,66.4,18.9,28.68,South,180,3.0,8.0,16,0.00,,,0.00,meteohub,2013-05-01 22:57:00,
2013-05-01 19:02:00,66.2,18.7,28.69,SW,225,2.0,7.0,16,0.00,,,0.00,meteohub,2013-05-01 23:02:00,
2013-05-01 19:07:00,65.8,22.5,28.69,West,270,2.0,5.0,19,0.00,,,0.00,meteohub,2013-05-01 23:07:00,
2013-05-01 19:12:00,65.5,22.1,28.69,SW,225,2.0,3.0,19,0.00,,,0.00,meteohub,2013-05-01 23:12:00,
2013-05-01 19:17:00,64.8,25.0,28.69,West,270,2.0,3.0,22,0.00,,,0.00,meteohub,2013-05-01 23:17:00,
2013-05-01 19:22:00,63.9,21.9,28.69,SE,135,1.0,2.0,20,0.00,,,0.00,meteohub,2013-05-01 23:22:00,
2013-05-01 19:27:00,63.1,22.6,28.69,West,270,1.0,2.0,21,0.00,,,0.00,meteohub,2013-05-01 23:27:00,
2013-05-01 19:32:00,62.6,23.2,28.69,South,180,1.0,2.0,22,0.00,,,0.00,meteohub,2013-05-01 23:32:00,
2013-05-01 19:37:00,62.2,23.9,28.69,South,180,2.0,2.0,23,0.00,,,0.00,meteohub,2013-05-01 23:37:00,
2013-05-01 19:42:00,61.7,25.5,28.69,South,180,2.0,2.0,25,0.00,,,0.00,meteohub,2013-05-01 23:42:00,
2013-05-01 19:47:00,61.2,27.0,28.69,South,180,2.0,3.0,27,0.00,,,0.00,meteohub,2013-05-01 23:47:00,
2013-05-01 19:52:00,60.8,27.5,28.69,South,180,2.0,3.0,28,0.00,,,0.00,meteohub,2013-05-01 23:52:00,
2013-05-01 19:57:00,60.4,28.9,28.69,SE,135,2.0,3.0,30,0.00,,,0.00,meteohub,2013-05-01 23:57:00,
2013-05-01 20:02:00,60.1,28.6,28.70,SE,135,3.0,3.0,30,0.00,,,0.00,meteohub,2013-05-02 00:02:00,
2013-05-01 20:07:00,59.7,28.2,28.70,SE,135,3.0,3.0,30,0.00,,,0.00,meteohub,2013-05-02 00:07:00,
2013-05-01 20:12:00,59.2,28.6,28.70,South,180,3.0,4.0,31,0.00,,,0.00,meteohub,2013-05-02 00:12:00,
2013-05-01 20:17:00,58.8,28.9,28.70,SE,135,2.0,4.0,32,0.00,,,0.00,meteohub,2013-05-02 00:17:00,
2013-05-01 20:22:00,58.1,29.8,28.71,South,180,2.0,4.0,34,0.00,,,0.00,meteohub,2013-05-02 00:22:00,
2013-05-01 20:27:00,57.6,29.5,28.70,SE,135,3.0,4.0,34,0.00,,,0.00,meteohub,2013-05-02 00:27:00,
2013-05-01 20:32:00,57.2,31.1,28.71,SE,135,3.0,3.0,37,0.00,,,0.00,meteohub,2013-05-02 00:32:00,
2013-05-01 20:37:00,56.8,32.2,28.71,SW,225,2.0,3.0,39,0.00,,,0.00,meteohub,2013-05-02 00:37:00,
2013-05-01 20:42:00,56.5,32.4,28.70,NE,45,1.0,3.0,40,0.00,,,0.00,meteohub,2013-05-02 00:42:00,
2013-05-01 20:47:00,56.3,33.4,28.71,East,90,2.0,3.0,42,0.00,,,0.00,meteohub,2013-05-02 00:47:00,
2013-05-01 20:52:00,56.5,33.6,28.71,South,180,2.0,2.0,42,0.00,,,0.00,meteohub,2013-05-02 00:52:00,
2013-05-01 20:57:00,56.3,33.4,28.71,SW,225,2.0,2.0,42,0.00,,,0.00,meteohub,2013-05-02 00:57:00,
2013-05-01 21:02:00,55.9,33.3,28.71,SW,225,2.0,2.0,42,0.00,,,0.00,meteohub,2013-05-02 01:02:00,
2013-05-01 21:07:00,55.8,33.1,28.71,SW,225,2.0,3.0,42,0.00,,,0.00,meteohub,2013-05-02 01:07:00,
2013-05-01 21:12:00,55.4,32.7,28.72,SE,135,2.0,3.0,42,0.00,,,0.00,meteohub,2013-05-02 01:12:00,
2013-05-01 21:17:00,55.4,33.3,28.72,South,180,2.0,3.0,43,0.00,,,0.00,meteohub,2013-05-02 01:17:00,
2013-05-01 21:22:00,54.7,33.3,28.72,SW,225,2.0,3.0,44,0.00,,,0.00,meteohub,2013-05-02 01:22:00,
2013-05-01 21:27:00,54.0,33.1,28.72,SW,225,1.0,2.0,45,0.00,,,0.00,meteohub,2013-05-02 01:27:00,
2013-05-01 21:32:00,53.6,32.7,28.72,West,270,1.0,2.0,45,0.00,,,0.00,meteohub,2013-05-02 01:32:00,
2013-05-01 21:37:00,53.2,33.1,28.72,East,90,0.0,2.0,46,0.00,,,0.00,meteohub,2013-05-02 01:37:00,
2013-05-01 21:42:00,52.9,33.8,28.73,South,180,2.0,2.0,48,0.00,,,0.00,meteohub,2013-05-02 01:42:00,
2013-05-01 21:47:00,52.9,34.2,28.73,South,180,2.0,2.0,49,0.00,,,0.00,meteohub,2013-05-02 01:47:00,
2013-05-01 21:52:00,52.9,34.7,28.73,SW,225,1.0,2.0,50,0.00,,,0.00,meteohub,2013-05-02 01:52:00,
2013-05-01 21:57:00,52.9,34.7,28.73,SW,225,2.0,2.0,50,0.00,,,0.00,meteohub,2013-05-02 01:57:00,
2013-05-01 22:02:00,52.5,34.3,28.73,South,180,2.0,2.0,50,0.00,,,0.00,meteohub,2013-05-02 02:02:00,
2013-05-01 22:07:00,52.5,34.9,28.72,SW,225,3.0,3.0,51,0.00,,,0.00,meteohub,2013-05-02 02:07:00,
2013-05-01 22:12:00,52.5,34.9,28.73,West,270,2.0,3.0,51,0.00,,,0.00,meteohub,2013-05-02 02:12:00,
2013-05-01 22:17:00,52.3,34.7,28.73,West,270,2.0,3.0,51,0.00,,,0.00,meteohub,2013-05-02 02:17:00,
2013-05-01 22:22:00,52.0,34.3,28.73,West,270,3.0,3.0,51,0.00,,,0.00,meteohub,2013-05-02 02:22:00,
2013-05-01 22:27:00,52.0,34.3,28.73,North,0,2.0,3.0,51,0.00,,,0.00,meteohub,2013-05-02 02:27:00,
2013-05-01 22:32:00,51.6,34.5,28.73,South,180,2.0,3.0,52,0.00,,,0.00,meteohub,2013-05-02 02:32:00,
2013-05-01 22:37:00,51.4,34.3,28.74,West,270,0.0,3.0,52,0.00,,,0.00,meteohub,2013-05-02 02:37:00,
2013-05-01 22:42:00,51.3,34.2,28.73,South,180,0.0,2.0,52,0.00,,,0.00,meteohub,2013-05-02 02:42:00,
2013-05-01 22:47:00,51.1,34.0,28.73,NE,45,2.0,2.0,52,0.00,,,0.00,meteohub,2013-05-02 02:47:00,
2013-05-01 22:52:00,50.7,34.2,28.74,West,270,0.0,2.0,53,0.00,,,0.00,meteohub,2013-05-02 02:52:00,
2013-05-01 22:57:00,50.5,34.0,28.74,West,270,1.0,2.0,53,0.00,,,0.00,meteohub,2013-05-02 02:57:00,
2013-05-01 23:02:00,50.4,34.3,28.74,South,180,0.0,2.0,54,0.00,,,0.00,meteohub,2013-05-02 03:02:00,
2013-05-01 23:07:00,50.0,34.5,28.74,East,90,0.0,2.0,55,0.00,,,0.00,meteohub,2013-05-02 03:07:00,
2013-05-01 23:12:00,49.5,35.2,28.74,SW,225,1.0,2.0,58,0.00,,,0.00,meteohub,2013-05-02 03:12:00,
2013-05-01 23:17:00,49.3,35.1,28.74,SW,225,2.0,2.0,58,0.00,,,0.00,meteohub,2013-05-02 03:17:00,
2013-05-01 23:22:00,49.1,34.9,28.73,South,180,0.0,2.0,58,0.00,,,0.00,meteohub,2013-05-02 03:22:00,
2013-05-01 23:27:00,48.7,35.1,28.73,SE,135,1.0,2.0,59,0.00,,,0.00,meteohub,2013-05-02 03:27:00,
2013-05-01 23:32:00,48.6,34.9,28.73,SE,135,0.0,2.0,59,0.00,,,0.00,meteohub,2013-05-02 03:32:00,
2013-05-01 23:37:00,48.2,34.5,28.73,SW,225,2.0,2.0,59,0.00,,,0.00,meteohub,2013-05-02 03:37:00,
2013-05-01 23:42:00,48.0,34.9,28.73,SW,225,2.0,2.0,60,0.00,,,0.00,meteohub,2013-05-02 03:42:00,
2013-05-01 23:47:00,47.8,34.7,28.73,SE,135,2.0,2.0,60,0.00,,,0.00,meteohub,2013-05-02 03:47:00,
2013-05-01 23:52:00,47.7,35.2,28.73,East,90,1.0,2.0,62,0.00,,,0.00,meteohub,2013-05-02 03:52:00,
2013-05-01 23:57:00,47.1,35.6,28.73,SE,135,2.0,2.0,64,0.00,,,0.00,meteohub,2013-05-02 03:57:00,